SCP
0 0 0 0 0 0 0 0 0 0 0 0 0 0 0 0 0 0 0 1 0 0 0 0 0 -0 -0 -0 -0 -0 -0 -0 -0 -0 -0 -0 -0 -0 -0 -0 -0 -0 -0
0 0 0 0 0 0 0 1 0 0 0 0 0 0 0 0 0 0 0 0 0 0 0 0 0 0 0 -0 -0 -0 -0 -0 -0 -0 0 0 -0 -0 -0 -0 -0 -0 -0
0 0 0 0 0 0 0 0 0 0 0 0 0 0 0 0 0 0 0 0 0 0 0 0 0 0 0 -0 -0 -0 -0 -0 -0 0 0 0 0 -0 -0 -0 -0 -0 -0
0 0 0 0 0 0 0 0 0 0 0 0 0 0 0 0 0 0 0 0 0 0 0 0 0 0 0 0 -0 -0 -0 -0 -0 -0 0 0 0 -0 -0 -0 -0 -0 -0
0 0 0 0 0 0 0 0 0 0 0 0 0 0 0 0 0 0 0 0 0 0 0 0 0 0 0 0 0 -0 -0 -0 -0 0 0 0 0 -0 -0 -0 -0 -0 -0
0 0 0 0 0 0 0 0 0 0 0 0 0 0 0 0 -0 -0 -0 0 0 0 0 0 0 0 0 0 0 -0 -0 -0 0 0 0 0 0 -0 -0 -0 -0 -0 -0
0 0 0 0 0 0 0 0 0 0 0 -0 0 -0 0 -0 -0 0 -0 -0 -0 0 0 0 0 0 0 0 0 -0 -0 -0 0 0 0 0 0 -0 -0 -0 -0 -0 -0
0 0 0 0 0 0 0 -0 -0 -0 -0 -0 -0 0 0 0 -0 -0 -0 -0 -0 0 0 0 0 0 0 0 0 -0 -0 0 0 0 0 0 0 -0 -0 -0 -0 -0 -0
0 0 0 0 0 0 -0 -0 -0 -0 -0 -0 -0 0 0 0 0 -0 -0 -0 -0 -0 0 0 0 0 0 0 0 0 -0 0 0 0 0 0 0 0 -0 -0 -0 -0 -0
0 0 0 0 0 0 0 -0 -0 -0 -0 -0 -0 -0 0 0 0 0 0 0 0 0 0 0 0 0 0 0 0 0 0 0 0 0 0 0 0 0 0 0 0 0 -0
0 0 0 0 0 0 0 0 0 -0 -0 -0 -0 -0 0 0 0 0 0 0 0 0 0 0 0 0 0 0 0 0 0 0 0 0 0 0 0 0 0 0 0 0 0
0 0 0 0 0 0 0 0 0 0 0 0 0 0 0 0 0 0 0 0 0 0 0 0 0 0 0 0 0 0 0 0 0 0 0 0 0 0 0 0 0 0 0
0 0 0 0 0 0 0 0 0 0 0 0 0 0 0 0 0 0 0 0 0 0 0 0 0 0 0 0 0 0 0 0 0 0 0 0 0 0 0 0 0 0 0
0 0 0 0 0 0 0 0 0 0 0 0 0 0 0 0 0 0 0 0 0 0 0 0 0 0 0 0 0 0 0 0 0 0 0 0 0 0 0 0 0 0 0
0 0 0 0 0 0 0 0 0 0 0 0 0 0 0 0 0 0 0 0 0 0 0 0 0 0 0 0 0 0 0 0 0 0 0 0 0 0 0 0 0 0 0
0 0 0 0 0 0 0 0 0 0 0 0 0 0 0 0 0 0 0 0 0 0 0 0 0 0 0 0 0 0 0 0 0 0 0 0 0 0 0 0 0 0 0
0 0 0 0 0 0 0 0 0 0 0 0 0 0 0 0 0 0 0 0 0 0 0 0 0 0 0 0 0 0 0 0 0 0 0 0 0 0 0 0 0 0 0
0 0 0 0 0 0 0 0 0 0 0 0 0 0 0 0 0 0 0 0 0 0 0 0 0 0 0 0 0 0 0 0 0 0 0 0 0 0 0 0 0 0 0
0 0 0 0 0 0 0 0 0 0 0 0 0 0 0 0 0 0 0 0 0 0 0 0 0 0 0 0 0 0 0 0 0 0 0 0 0 0 0 0 0 0 0
0 0 0 0 0 0 0 0 0 0 0 0 0 0 0 0 0 0 0 0 0 0 0 0 0 0 0 0 0 0 0 0 0 0 0 0 0 0 0 0 0 0 0
0 0 0 0 0 0 0 0 0 0 0 0 0 0 0 0 0 0 0 0 0 0 0 0 0 0 0 0 0 0 0 0 0 0 0 0 0 0 0 0 0 0 0
0 0 0 0 0 0 0 0 0 0 0 0 0 0 0 0 0 0 0 0 0 0 0 0 0 0 0 0 0 0 0 0 0 0 0 0 0 0 0 0 0 0 0
0 0 0 0 0 0 0 0 0 0 0 0 0 0 0 0 0 0 0 0 0 0 0 0 0 0 0 0 0 0 0 0 0 0 0 0 0 0 0 0 0 0 0
0 0 0 0 0 0 0 0 0 0 0 0 0 0 0 0 0 0 0 0 0 0 0 0 0 0 0 0 0 0 0 0 0 0 0 0 0 0 0 0 0 0 0
0 0 0 0 0 0 0 0 0 0 0 0 0 0 0 0 0 0 0 0 0 0 0 0 0 0 0 0 0 0 0 0 0 0 0 0 0 0 0 0 0 0 0
0 0 0 0 0 0 0 0 0 0 0 0 0 0 0 0 0 0 0 0 0 0 0 0 0 0 0 0 0 0 0 0 0 0 0 0 0 0 0 0 0 0 0
Wind_Speed_500mb
21 17 20 27 27 26 24 24 24 30 35 35 32 33 31 26 24 23 25 25 25 29 32 34 34 36 39 40 42 42 40 39 42 41 38 39 39 39 38 38 40 36 32
13 13 19 29 30 28 27 24 24 22 26 32 35 38 32 25 25 21 24 26 26 31 33 37 39 41 42 41 41 44 42 41 39 40 39 38 34 35 35 34 36 39 38
8 10 19 27 30 29 27 26 26 28 28 31 34 36 34 33 29 26 28 32 30 31 34 39 40 41 43 41 43 42 42 40 39 39 40 42 37 34 33 31 32 34 35
11 15 22 25 25 27 27 29 30 26 28 34 37 36 37 36 37 40 37 37 29 31 33 34 34 40 44 43 43 43 40 40 38 41 41 41 39 38 36 32 34 31 31
11 8 9 16 22 27 29 28 28 26 25 31 39 40 42 43 47 54 48 42 33 33 33 33 38 46 48 45 43 41 35 33 30 29 36 38 37 36 38 37 31 31 31
12 9 13 16 20 23 26 32 29 27 29 32 38 42 48 58 60 71 55 38 25 39 33 28 34 41 45 43 38 37 34 30 25 24 25 26 30 28 28 32 35 31 29
20 15 16 16 16 15 15 18 26 15 39 33 33 65 48 73 63 61 56 44 27 28 28 30 37 41 41 42 39 34 28 27 27 25 18 26 26 24 21 22 26 28 29
23 22 16 11 14 12 14 16 8 29 47 55 29 33 39 50 50 46 46 37 18 21 31 32 35 38 39 41 40 33 24 18 19 25 25 25 26 22 19 19 18 19 22
31 26 22 18 11 8 8 15 24 37 43 44 44 44 43 31 36 44 34 29 24 30 31 33 34 37 39 39 35 30 21 17 13 16 18 18 19 18 16 14 13 14 16
35 31 27 25 19 14 17 28 37 44 44 42 44 38 45 36 32 40 33 28 27 30 30 31 33 35 36 34 29 25 22 15 12 13 13 14 14 14 12 13 14 16 17
44 38 34 33 27 23 25 33 33 37 36 36 45 51 44 42 36 35 31 30 32 30 28 30 34 36 34 32 28 24 20 16 14 12 14 17 19 26 28 26 18 21 18
50 47 41 39 35 37 31 38 44 48 45 43 44 49 42 41 40 42 39 36 32 31 30 31 30 30 31 31 28 26 20 16 15 19 25 31 32 32 29 22 17 17 14
49 51 47 44 45 41 39 44 45 46 48 51 50 48 43 42 35 31 30 32 32 31 29 27 27 27 27 28 28 26 22 21 22 26 34 35 29 21 16 14 13 11 8
53 54 54 52 51 51 45 45 46 43 31 30 31 35 44 40 36 37 33 31 23 21 25 28 26 26 26 27 27 27 25 23 26 28 35 34 21 21 19 14 13 8 6
54 55 57 61 59 59 53 51 51 49 41 32 30 28 22 19 22 26 25 27 28 21 21 22 24 25 27 28 29 28 26 25 26 29 30 30 20 10 6 6 5 3 2
51 56 59 64 65 63 56 51 54 52 47 43 37 31 29 27 27 24 22 20 20 19 20 21 22 23 25 26 28 26 24 24 24 25 27 18 11 10 8 6 4 4 5
51 52 63 66 69 69 62 56 57 57 52 46 45 41 37 35 33 31 31 32 32 28 26 26 25 24 24 26 25 25 24 23 21 23 24 21 18 17 11 8 4 3 3
45 55 50 69 69 70 67 61 57 58 55 51 48 47 45 38 34 32 31 31 29 28 26 25 25 26 26 25 25 26 23 22 22 22 21 19 15 11 9 7 6 5 4
46 50 58 62 75 72 71 67 63 60 58 53 50 49 46 43 42 38 33 33 30 27 25 25 25 23 23 23 23 25 25 21 20 19 17 17 15 12 11 10 8 6 6
49 51 54 61 67 72 70 68 66 62 58 53 52 49 47 46 43 38 38 36 33 31 31 29 26 24 21 21 21 20 19 19 19 19 18 16 17 15 15 15 13 12 12
56 55 57 60 64 70 75 72 66 65 62 58 56 53 52 50 47 45 42 38 35 34 30 27 28 28 28 27 25 24 21 21 20 21 19 19 19 17 17 16 15 15 17
54 58 59 57 62 66 70 72 70 68 64 61 61 58 54 53 51 47 43 40 39 37 39 34 30 32 33 34 29 24 20 22 27 24 22 22 20 18 20 17 17 16 17
49 53 54 57 59 67 68 67 70 64 63 63 61 58 57 57 55 51 48 45 44 42 38 35 33 34 36 37 34 18 13 12 24 25 22 22 20 19 23 18 19 18 20
37 37 41 48 54 59 62 65 68 70 71 68 63 59 59 62 61 56 53 51 49 45 43 39 35 33 33 34 37 37 25 13 16 17 24 22 20 21 22 20 20 21 20
39 31 28 36 43 49 53 55 60 63 61 61 60 58 61 62 62 60 59 57 53 49 45 43 41 39 37 37 37 36 38 32 27 21 19 29 26 24 22 15 20 24 23
34 35 23 28 40 37 41 44 45 51 55 58 58 59 61 62 62 60 57 56 55 53 53 49 48 47 46 43 41 39 39 38 37 36 29 27 27 26 24 22 22 21 22
Wind_Direction_500mb
204 208 208 200 200 199 192 181 194 201 200 185 178 166 158 156 141 138 137 133 132 136 138 137 135 134 132 128 122 119 123 122 114 114 116 115 115 113 114 115 110 107 109
203 199 205 201 204 207 202 198 200 195 186 189 191 192 190 176 145 138 148 141 132 132 139 136 135 135 128 127 125 120 117 114 114 114 112 107 103 109 111 115 116 111 109
196 209 208 205 206 211 212 207 202 198 196 195 190 193 197 200 183 150 151 145 134 131 138 135 132 140 129 127 127 125 122 122 123 121 115 106 103 102 104 109 109 110 109
205 210 204 205 205 206 210 212 209 203 200 199 189 182 178 176 178 168 158 156 145 136 136 139 137 136 126 129 128 127 126 120 122 116 118 116 104 105 107 106 106 106 108
192 195 200 198 202 213 216 220 221 218 211 199 194 188 188 176 166 161 149 147 157 143 140 139 132 133 133 133 128 123 125 133 130 127 118 120 118 111 106 104 106 106 106
167 173 160 178 191 215 221 225 221 213 212 211 202 192 181 163 135 146 135 121 135 154 157 153 145 140 138 137 135 133 140 147 148 144 148 145 127 132 122 115 113 112 113
168 174 171 159 169 191 204 210 212 226 202 181 144 157 124 131 136 136 122 111 133 156 162 143 145 145 143 144 141 143 151 154 166 169 172 163 138 138 133 130 124 126 125
170 167 166 165 175 198 215 215 181 156 163 185 189 114 117 113 122 130 139 119 151 165 155 151 148 147 147 151 155 155 164 159 142 137 127 123 123 126 130 135 143 144 137
170 180 190 166 155 147 174 176 175 172 158 172 192 190 103 106 128 116 115 131 177 169 157 152 148 148 150 154 160 162 169 167 149 131 134 138 135 136 143 140 136 132 132
175 183 173 164 153 142 150 146 156 156 155 156 156 157 130 122 123 129 136 152 160 159 162 155 155 154 158 163 170 176 184 180 171 152 137 139 138 142 139 137 134 132 136
180 184 183 167 156 147 156 147 139 146 148 145 144 136 134 142 141 139 153 169 172 163 158 157 161 163 166 171 177 189 195 184 185 170 152 132 124 115 114 115 137 126 132
182 190 194 179 171 159 170 172 166 152 149 143 137 135 150 161 166 161 167 168 167 159 158 162 168 170 174 176 182 191 194 191 174 151 138 130 129 128 132 137 148 140 145
187 191 190 194 188 182 183 172 167 164 157 156 157 156 156 157 156 154 156 158 168 165 162 163 169 173 173 178 180 192 184 175 162 157 140 144 138 136 137 136 125 121 138
196 195 197 197 199 194 185 181 169 170 176 173 162 160 160 163 164 160 161 155 164 173 174 168 174 175 176 180 182 195 180 173 172 172 164 152 147 133 124 140 142 166 186
206 203 199 199 203 200 195 192 190 189 189 189 188 180 176 171 173 172 169 166 166 181 187 181 178 179 177 175 178 195 185 179 182 188 186 185 197 209 178 150 169 208 264
213 212 201 200 202 205 205 203 200 199 196 194 202 204 202 193 187 186 193 197 202 197 186 183 184 183 181 179 180 193 194 192 189 199 207 214 221 211 235 232 239 268 293
222 216 207 203 205 207 210 212 204 202 204 205 201 204 208 201 196 193 196 199 200 197 188 187 187 183 184 182 181 193 198 195 197 202 211 220 218 228 235 243 249 250 282
224 219 215 205 210 210 212 215 213 209 210 208 209 210 205 205 203 201 201 200 198 195 193 194 191 188 185 182 181 180 200 198 200 205 213 221 225 226 223 226 236 228 242
229 222 214 209 211 214 217 220 219 217 214 210 211 210 208 206 204 204 202 199 196 197 199 199 197 197 196 190 185 183 187 199 211 220 219 226 232 229 240 243 244 254 272
220 224 219 212 213 214 217 219 217 215 216 214 214 212 210 209 210 207 202 202 197 196 197 201 204 202 201 201 194 190 191 203 211 215 229 237 244 240 241 250 256 262 271
211 218 215 214 215 213 214 215 213 215 215 214 214 215 215 212 210 206 208 206 204 201 198 204 203 199 198 197 195 186 193 202 221 232 229 236 244 252 253 257 266 280 293
208 213 215 220 219 217 217 218 219 215 216 219 218 216 213 214 214 213 207 212 205 208 199 201 211 206 204 202 200 192 193 202 212 221 235 244 241 248 251 255 262 268 279
186 204 219 222 221 220 216 217 220 218 218 216 217 216 214 214 215 214 210 208 214 209 208 204 209 211 214 209 207 195 188 204 195 213 222 240 248 247 255 256 271 279 287
162 186 208 221 221 218 218 219 224 223 220 221 222 219 216 214 214 213 214 210 208 215 216 209 218 218 222 224 218 218 224 212 187 192 215 225 237 244 253 268 283 287 286
183 181 180 204 213 215 219 224 227 229 229 231 227 224 219 216 215 212 211 213 214 209 210 215 214 216 225 223 223 225 222 221 216 207 197 211 219 229 242 263 287 285 287
187 187 157 170 202 214 220 224 229 233 233 231 231 229 226 221 219 217 218 218 218 215 211 206 211 214 216 221 224 225 229 227 230 225 220 213 222 233 248 272 280 279 280
Wind_Speed_850mb
21 17 20 27 27 26 24 24 24 30 35 35 32 33 31 26 24 23 25 25 25 29 32 34 34 36 39 40 42 42 40 39 42 41 38 39 39 39 38 38 40 36 32
13 13 19 29 30 28 27 24 24 22 26 32 35 38 32 25 25 21 24 26 26 31 33 37 39 41 42 41 41 44 42 41 39 40 39 38 34 35 35 34 36 39 38
8 10 19 27 30 29 27 26 26 28 28 31 34 36 34 33 29 26 28 32 30 31 34 39 40 41 43 41 43 42 42 40 39 39 40 42 37 34 33 31 32 34 35
11 15 22 25 25 27 27 29 30 26 28 34 37 36 37 36 37 40 37 37 29 31 33 34 34 40 44 43 43 43 40 40 38 41 41 41 39 38 36 32 34 31 31
11 8 9 16 22 27 29 28 28 26 25 31 39 40 42 43 47 54 48 42 33 33 33 33 38 46 48 45 43 41 35 33 30 29 36 38 37 36 38 37 31 31 31
12 9 13 16 20 23 26 32 29 27 29 32 38 42 48 58 60 71 55 38 25 39 33 28 34 41 45 43 38 37 34 30 25 24 25 26 30 28 28 32 35 31 29
20 15 16 16 16 15 15 18 26 15 39 33 33 65 48 73 63 61 56 44 27 28 28 30 37 41 41 42 39 34 28 27 27 25 18 26 26 24 21 22 26 28 29
23 22 16 11 14 12 14 16 8 29 47 55 29 33 39 50 50 46 46 37 18 21 31 32 35 38 39 41 40 33 24 18 19 25 25 25 26 22 19 19 18 19 22
31 26 22 18 11 8 8 15 24 37 43 44 44 44 43 31 36 44 34 29 24 30 31 33 34 37 39 39 35 30 21 17 13 16 18 18 19 18 16 14 13 14 16
35 31 27 25 19 14 17 28 37 44 44 42 44 38 45 36 32 40 33 28 27 30 30 31 33 35 36 34 29 25 22 15 12 13 13 14 14 14 12 13 14 16 17
44 38 34 33 27 23 25 33 33 37 36 36 45 51 44 42 36 35 31 30 32 30 28 30 34 36 34 32 28 24 20 16 14 12 14 17 19 26 28 26 18 21 18
50 47 41 39 35 37 31 38 44 48 45 43 44 49 42 41 40 42 39 36 32 31 30 31 30 30 31 31 28 26 20 16 15 19 25 31 32 32 29 22 17 17 14
49 51 47 44 45 41 39 44 45 46 48 51 50 48 43 42 35 31 30 32 32 31 29 27 27 27 27 28 28 26 22 21 22 26 34 35 29 21 16 14 13 11 8
53 54 54 52 51 51 45 45 46 43 31 30 31 35 44 40 36 37 33 31 23 21 25 28 26 26 26 27 27 27 25 23 26 28 35 34 21 21 19 14 13 8 6
54 55 57 61 59 59 53 51 51 49 41 32 30 28 22 19 22 26 25 27 28 21 21 22 24 25 27 28 29 28 26 25 26 29 30 30 20 10 6 6 5 3 2
51 56 59 64 65 63 56 51 54 52 47 43 37 31 29 27 27 24 22 20 20 19 20 21 22 23 25 26 28 26 24 24 24 25 27 18 11 10 8 6 4 4 5
51 52 63 66 69 69 62 56 57 57 52 46 45 41 37 35 33 31 31 32 32 28 26 26 25 24 24 26 25 25 24 23 21 23 24 21 18 17 11 8 4 3 3
45 55 50 69 69 70 67 61 57 58 55 51 48 47 45 38 34 32 31 31 29 28 26 25 25 26 26 25 25 26 23 22 22 22 21 19 15 11 9 7 6 5 4
46 50 58 62 75 72 71 67 63 60 58 53 50 49 46 43 42 38 33 33 30 27 25 25 25 23 23 23 23 25 25 21 20 19 17 17 15 12 11 10 8 6 6
49 51 54 61 67 72 70 68 66 62 58 53 52 49 47 46 43 38 38 36 33 31 31 29 26 24 21 21 21 20 19 19 19 19 18 16 17 15 15 15 13 12 12
56 55 57 60 64 70 75 72 66 65 62 58 56 53 52 50 47 45 42 38 35 34 30 27 28 28 28 27 25 24 21 21 20 21 19 19 19 17 17 16 15 15 17
54 58 59 57 62 66 70 72 70 68 64 61 61 58 54 53 51 47 43 40 39 37 39 34 30 32 33 34 29 24 20 22 27 24 22 22 20 18 20 17 17 16 17
49 53 54 57 59 67 68 67 70 64 63 63 61 58 57 57 55 51 48 45 44 42 38 35 33 34 36 37 34 18 13 12 24 25 22 22 20 19 23 18 19 18 20
37 37 41 48 54 59 62 65 68 70 71 68 63 59 59 62 61 56 53 51 49 45 43 39 35 33 33 34 37 37 25 13 16 17 24 22 20 21 22 20 20 21 20
39 31 28 36 43 49 53 55 60 63 61 61 60 58 61 62 62 60 59 57 53 49 45 43 41 39 37 37 37 36 38 32 27 21 19 29 26 24 22 15 20 24 23
34 35 23 28 40 37 41 44 45 51 55 58 58 59 61 62 62 60 57 56 55 53 53 49 48 47 46 43 41 39 39 38 37 36 29 27 27 26 24 22 22 21 22
Wind_Direction_850mb
204 208 208 200 200 199 192 181 194 201 200 185 178 166 158 156 141 138 137 133 132 136 138 137 135 134 132 128 122 119 123 122 114 114 116 115 115 113 114 115 110 107 109
203 199 205 201 204 207 202 198 200 195 186 189 191 192 190 176 145 138 148 141 132 132 139 136 135 135 128 127 125 120 117 114 114 114 112 107 103 109 111 115 116 111 109
196 209 208 205 206 211 212 207 202 198 196 195 190 193 197 200 183 150 151 145 134 131 138 135 132 140 129 127 127 125 122 122 123 121 115 106 103 102 104 109 109 110 109
205 210 204 205 205 206 210 212 209 203 200 199 189 182 178 176 178 168 158 156 145 136 136 139 137 136 126 129 128 127 126 120 122 116 118 116 104 105 107 106 106 106 108
192 195 200 198 202 213 216 220 221 218 211 199 194 188 188 176 166 161 149 147 157 143 140 139 132 133 133 133 128 123 125 133 130 127 118 120 118 111 106 104 106 106 106
167 173 160 178 191 215 221 225 221 213 212 211 202 192 181 163 135 146 135 121 135 154 157 153 145 140 138 137 135 133 140 147 148 144 148 145 127 132 122 115 113 112 113
168 174 171 159 169 191 204 210 212 226 202 181 144 157 124 131 136 136 122 111 133 156 162 143 145 145 143 144 141 143 151 154 166 169 172 163 138 138 133 130 124 126 125
170 167 166 165 175 198 215 215 181 156 163 185 189 114 117 113 122 130 139 119 151 165 155 151 148 147 147 151 155 155 164 159 142 137 127 123 123 126 130 135 143 144 137
170 180 190 166 155 147 174 176 175 172 158 172 192 190 103 106 128 116 115 131 177 169 157 152 148 148 150 154 160 162 169 167 149 131 134 138 135 136 143 140 136 132 132
175 183 173 164 153 142 150 146 156 156 155 156 156 157 130 122 123 129 136 152 160 159 162 155 155 154 158 163 170 176 184 180 171 152 137 139 138 142 139 137 134 132 136
180 184 183 167 156 147 156 147 139 146 148 145 144 136 134 142 141 139 153 169 172 163 158 157 161 163 166 171 177 189 195 184 185 170 152 132 124 115 114 115 137 126 132
182 190 194 179 171 159 170 172 166 152 149 143 137 135 150 161 166 161 167 168 167 159 158 162 168 170 174 176 182 191 194 191 174 151 138 130 129 128 132 137 148 140 145
187 191 190 194 188 182 183 172 167 164 157 156 157 156 156 157 156 154 156 158 168 165 162 163 169 173 173 178 180 192 184 175 162 157 140 144 138 136 137 136 125 121 138
196 195 197 197 199 194 185 181 169 170 176 173 162 160 160 163 164 160 161 155 164 173 174 168 174 175 176 180 182 195 180 173 172 172 164 152 147 133 124 140 142 166 186
206 203 199 199 203 200 195 192 190 189 189 189 188 180 176 171 173 172 169 166 166 181 187 181 178 179 177 175 178 195 185 179 182 188 186 185 197 209 178 150 169 208 264
213 212 201 200 202 205 205 203 200 199 196 194 202 204 202 193 187 186 193 197 202 197 186 183 184 183 181 179 180 193 194 192 189 199 207 214 221 211 235 232 239 268 293
222 216 207 203 205 207 210 212 204 202 204 205 201 204 208 201 196 193 196 199 200 197 188 187 187 183 184 182 181 193 198 195 197 202 211 220 218 228 235 243 249 250 282
224 219 215 205 210 210 212 215 213 209 210 208 209 210 205 205 203 201 201 200 198 195 193 194 191 188 185 182 181 180 200 198 200 205 213 221 225 226 223 226 236 228 242
229 222 214 209 211 214 217 220 219 217 214 210 211 210 208 206 204 204 202 199 196 197 199 199 197 197 196 190 185 183 187 199 211 220 219 226 232 229 240 243 244 254 272
220 224 219 212 213 214 217 219 217 215 216 214 214 212 210 209 210 207 202 202 197 196 197 201 204 202 201 201 194 190 191 203 211 215 229 237 244 240 241 250 256 262 271
211 218 215 214 215 213 214 215 213 215 215 214 214 215 215 212 210 206 208 206 204 201 198 204 203 199 198 197 195 186 193 202 221 232 229 236 244 252 253 257 266 280 293
208 213 215 220 219 217 217 218 219 215 216 219 218 216 213 214 214 213 207 212 205 208 199 201 211 206 204 202 200 192 193 202 212 221 235 244 241 248 251 255 262 268 279
186 204 219 222 221 220 216 217 220 218 218 216 217 216 214 214 215 214 210 208 214 209 208 204 209 211 214 209 207 195 188 204 195 213 222 240 248 247 255 256 271 279 287
162 186 208 221 221 218 218 219 224 223 220 221 222 219 216 214 214 213 214 210 208 215 216 209 218 218 222 224 218 218 224 212 187 192 215 225 237 244 253 268 283 287 286
183 181 180 204 213 215 219 224 227 229 229 231 227 224 219 216 215 212 211 213 214 209 210 215 214 216 225 223 223 225 222 221 216 207 197 211 219 229 242 263 287 285 287
187 187 157 170 202 214 220 224 229 233 233 231 231 229 226 221 219 217 218 218 218 215 211 206 211 214 216 221 224 225 229 227 230 225 220 213 222 233 248 272 280 279 280